Weather History for Grand Forks AFB, ND

Change the Weather History Date:

Saturday, January 19, 2013

  Actual Average Record
Temperature  
Mean Temperature 13 °F -  
Max Temperature 32 °F 13 °F 35 °F (2014)
Min Temperature -6 °F 0 °F -18 °F (2008)
Degree Days  
Heating Degree Days 52    
Moisture  
Dew Point -1 °F    
Average Humidity 72    
Maximum Humidity 88    
Minimum Humidity 61    
Precipitation  
Precipitation 0.00 in - - ()
Sea Level Pressure  
Sea Level Pressure 30.03 in    
Wind  
Wind Speed 17 mph (NNW)    
Max Wind Speed 32 mph    
Max Gust Speed 44 mph    
Visibility 9 miles    
Events Snow    
Averages and records for this station are not official NWS values.
T = Trace of Precipitation, MM = Missing Value Source: NWS Daily Summary

Daily Weather History Graph

Daily Weather History Graph

Search for Another Location

Airport:

Trip Planner

Search our weather history database for the weather conditions in past years. The results will help you decide how hot, cold, wet, or windy it might be!

Date:

Astronomy

Jan. 19, 2013 Rise Set
Actual Time 8:11 AM CST 5:10 PM CST
Civil Twilight 7:36 AM CST 5:44 PM CST
Nautical Twilight 6:58 AM CST 6:23 PM CST
Astronomical Twilight 6:21 AM CST 7:00 PM CST
Moon 11:42 AM CST (1/19) 1:40 AM CST (1/19)
Length of Visible Light 10h 08m
Length of Day
8h 59m
First Quarter, 57% of the Moon is Illuminated
Jan 19
First Quarter
Jan 26
Full
Feb 3
Last Quarter
Feb 10
New
Feb 17
First Quarter

Hourly Weather History & Observations

Time (CST) Temp. Windchill Dew Point Humidity Pressure Visibility Wind Dir Wind Speed Gust Speed Precip Events Conditions
12:23 AM 15.8 °F - 12.2 °F 86% 29.72 in 10.0 mi Calm Calm - N/A   Scattered Clouds
12:55 AM 15.3 °F - 11.3 °F 84% 29.72 in 10.0 mi Calm Calm - N/A   Clear
1:55 AM 14.7 °F 4.8 °F 11.1 °F 86% 29.68 in 10.0 mi South 6.9 mph - N/A   Clear
2:55 AM 14.9 °F 3.1 °F 11.5 °F 86% 29.67 in 10.0 mi SSW 9.2 mph - N/A   Clear
3:55 AM 14.0 °F 3.9 °F 10.9 °F 88% 29.67 in 10.0 mi SSW 6.9 mph - N/A   Clear
4:55 AM 32.7 °F 23.0 °F 25.9 °F 76% 29.68 in 10.0 mi NW 13.8 mph - N/A   Clear
5:51 AM 32.0 °F 22.5 °F 26.6 °F 80% 29.71 in 10.0 mi NNW 12.7 mph - N/A   Mostly Cloudy
6:55 AM 26.1 °F 10.7 °F 19.9 °F 78% 29.75 in 10.0 mi NNW 25.3 mph 29.9 mph N/A   Overcast
7:37 AM 15.8 °F -1.1 °F 12.2 °F 86% 29.81 in 10.0 mi North 19.6 mph - N/A   Overcast
7:39 AM 15.8 °F -0.6 °F 10.4 °F 79% 29.81 in 10.0 mi North 18.4 mph - N/A   Overcast
7:47 AM 14.0 °F -3.4 °F 8.6 °F 79% 29.82 in 10.0 mi North 19.6 mph 26.5 mph N/A   Overcast
7:50 AM 14.0 °F -2.5 °F 8.6 °F 79% 29.82 in 10.0 mi North 17.3 mph 26.5 mph N/A Snow Light Snow
7:55 AM 13.6 °F -2.4 °F 8.8 °F 81% 29.82 in 10.0 mi North 16.1 mph - 0.00 in Snow Light Snow
8:01 AM 14.0 °F -2.0 °F 8.6 °F 79% 29.83 in 10.0 mi North 16.1 mph - N/A Snow Light Snow
8:18 AM 12.2 °F -5.8 °F 6.8 °F 79% 29.86 in 6.0 mi North 19.6 mph - N/A Snow Light Snow
8:24 AM 12.2 °F -4.3 °F 6.8 °F 79% 29.86 in 4.0 mi North 16.1 mph 23.0 mph N/A Snow Light Snow
8:46 AM 10.4 °F -9.5 °F 5.0 °F 79% 29.88 in 10.0 mi NNW 23.0 mph 27.6 mph N/A Snow Light Snow
8:49 AM 10.4 °F -9.1 °F 3.2 °F 73% 29.88 in 10.0 mi NNW 21.9 mph 27.6 mph N/A Snow Light Snow
8:53 AM 10.4 °F -9.1 °F 3.2 °F 73% 29.88 in 10.0 mi NNW 21.9 mph 27.6 mph N/A   Mostly Cloudy
8:55 AM 10.6 °F -7.9 °F 3.9 °F 75% 29.88 in 10.0 mi North 19.6 mph 27.6 mph 0.00 in   Overcast
8:56 AM 10.4 °F -8.6 °F 3.2 °F 73% 29.88 in 10.0 mi NNW 20.7 mph 27.6 mph N/A   Mostly Cloudy
9:08 AM 10.4 °F -9.1 °F 1.4 °F 67% 29.90 in 10.0 mi NNW 21.9 mph 31.1 mph N/A   Mostly Cloudy
9:26 AM 8.6 °F -11.4 °F 1.4 °F 73% 29.91 in 10.0 mi NNW 21.9 mph 31.1 mph N/A   Mostly Cloudy
9:31 AM 8.6 °F -11.4 °F 1.4 °F 73% 29.92 in 10.0 mi NNW 21.9 mph 31.1 mph N/A   Overcast
9:33 AM 8.6 °F -12.3 °F 1.4 °F 73% 29.93 in 10.0 mi NNW 24.2 mph 31.1 mph N/A   Overcast
9:38 AM 8.6 °F -12.3 °F 1.4 °F 73% 29.94 in 10.0 mi NNW 24.2 mph 34.5 mph N/A   Light Freezing Rain
9:39 AM 8.6 °F -13.4 °F 1.4 °F 73% 29.94 in 10.0 mi NNW 27.6 mph 34.5 mph N/A   Light Freezing Rain
9:43 AM 8.6 °F -12.3 °F 1.4 °F 73% 29.94 in 10.0 mi NNW 24.2 mph 34.5 mph N/A   Overcast
9:54 AM 8.6 °F -10.5 °F -0.4 °F 67% 29.94 in 10.0 mi NNW 19.6 mph 31.1 mph N/A   Light Freezing Rain
9:55 AM 8.6 °F -11.0 °F 0.5 °F 70% 29.94 in 10.0 mi NNW 20.7 mph 31.1 mph 0.00 in   Overcast
9:57 AM 8.6 °F -11.0 °F -0.4 °F 67% 29.95 in 10.0 mi NNW 20.7 mph 27.6 mph N/A   Overcast
10:04 AM 8.6 °F -13.1 °F -0.4 °F 67% 29.95 in 10.0 mi NNW 26.5 mph 33.4 mph N/A Snow Light Snow
10:05 AM 8.6 °F -13.1 °F -0.4 °F 67% 29.95 in 10.0 mi NNW 26.5 mph 33.4 mph N/A   Overcast
10:09 AM 8.6 °F -12.3 °F -0.4 °F 67% 29.96 in 10.0 mi NNW 24.2 mph 33.4 mph N/A Snow Light Snow
10:12 AM 8.6 °F -12.3 °F -0.4 °F 67% 29.96 in 9.0 mi NNW 24.2 mph 33.4 mph N/A   Overcast
10:39 AM 8.6 °F -12.3 °F -0.4 °F 67% 29.99 in 9.0 mi North 24.2 mph 36.8 mph N/A   Light Freezing Rain
10:43 AM 6.8 °F -12.9 °F -0.4 °F 72% 29.99 in 10.0 mi North 19.6 mph 34.5 mph N/A   Overcast
10:55 AM 7.3 °F -13.5 °F -1.1 °F 68% 30.00 in 10.0 mi North 23.0 mph 28.8 mph 0.00 in   Overcast
11:08 AM 6.8 °F -12.4 °F -0.4 °F 72% 30.01 in 10.0 mi North 18.4 mph 25.3 mph N/A   Overcast
11:10 AM 8.6 °F -10.5 °F -0.4 °F 67% 30.01 in 10.0 mi North 19.6 mph 25.3 mph N/A   Overcast
11:21 AM 6.8 °F -12.4 °F -0.4 °F 72% 30.01 in 10.0 mi North 18.4 mph 25.3 mph N/A   Overcast
11:27 AM 6.8 °F -14.7 °F -0.4 °F 72% 30.01 in 10.0 mi North 24.2 mph 28.8 mph N/A   Overcast
11:28 AM 6.8 °F -13.8 °F -0.4 °F 72% 30.01 in 10.0 mi North 21.9 mph 28.8 mph N/A   Light Freezing Rain
11:30 AM 6.8 °F -13.4 °F -0.4 °F 72% 30.01 in 9.0 mi North 20.7 mph 28.8 mph N/A   Overcast
11:35 AM 6.8 °F -13.8 °F -0.4 °F 72% 30.01 in 6.0 mi NNW 21.9 mph 28.8 mph N/A Snow Blowing Snow
11:39 AM 6.8 °F -15.1 °F -0.4 °F 72% 30.01 in 5.0 mi North 25.3 mph 31.1 mph N/A Snow Blowing Snow
11:53 AM 6.8 °F -14.3 °F -2.2 °F 67% 30.02 in 8.0 mi NNW 23.0 mph 34.5 mph N/A Snow Blowing Snow
11:55 AM 6.6 °F -14.9 °F -1.7 °F 69% 30.02 in 8.0 mi NNW 24.2 mph 34.5 mph 0.00 in Snow Blowing Snow
12:02 PM 6.8 °F -14.7 °F -2.2 °F 67% 30.03 in 6.0 mi NNW 24.2 mph 31.1 mph N/A Snow Blowing Snow
12:06 PM 6.8 °F -13.4 °F -2.2 °F 67% 30.04 in 4.0 mi NNW 20.7 mph 29.9 mph N/A Snow Light Snow
12:10 PM 5.0 °F -18.7 °F -2.2 °F 72% 30.04 in 4.0 mi North 28.8 mph 36.8 mph N/A Snow Light Snow
12:12 PM 5.0 °F -19.4 °F -2.2 °F 72% 30.04 in 3.0 mi NNW 31.1 mph 40.3 mph N/A Snow Light Snow
12:23 PM 5.0 °F -19.0 °F -5.8 °F 61% 30.05 in 6.0 mi NNW 29.9 mph 38.0 mph N/A   Light Freezing Rain
12:25 PM 3.2 °F -21.5 °F -5.8 °F 66% 30.04 in 6.0 mi North 29.9 mph 43.7 mph N/A   Light Freezing Rain
12:30 PM 3.2 °F -21.5 °F -5.8 °F 66% 30.05 in 4.0 mi North 29.9 mph 43.7 mph N/A   Light Freezing Rain
12:31 PM 3.2 °F -22.2 °F -5.8 °F 66% 30.05 in 4.0 mi North 32.2 mph 43.7 mph N/A   Light Freezing Rain
12:36 PM 3.2 °F -21.1 °F -5.8 °F 66% 30.06 in 4.0 mi North 28.8 mph 39.1 mph N/A   Light Freezing Rain
12:46 PM 3.2 °F -19.9 °F -7.6 °F 61% 30.07 in 8.0 mi North 25.3 mph 38.0 mph N/A   Light Freezing Rain
12:50 PM 3.2 °F -19.5 °F -7.6 °F 61% 30.07 in 9.0 mi North 24.2 mph 38.0 mph N/A   Light Freezing Rain
12:51 PM 3.2 °F -19.0 °F -5.8 °F 66% 30.08 in 10.0 mi North 23.0 mph 33.4 mph N/A   Overcast
12:55 PM 3.2 °F -19.9 °F -5.8 °F 66% 30.08 in 10.0 mi NNW 25.3 mph 33.4 mph N/A   Overcast
12:56 PM 3.2 °F -19.9 °F -5.8 °F 66% 30.08 in 10.0 mi NNW 25.3 mph 33.4 mph N/A   Overcast
12:58 PM 3.2 °F -21.5 °F -5.8 °F 66% 30.08 in 8.0 mi NNW 29.9 mph 40.3 mph N/A   Light Freezing Rain
1:10 PM 1.4 °F -23.2 °F -7.6 °F 66% 30.09 in 10.0 mi NNW 27.6 mph 36.8 mph N/A   Overcast
1:55 PM 1.2 °F -21.7 °F -7.8 °F 66% 30.12 in 10.0 mi NNW 23.0 mph 34.5 mph 0.00 in   Overcast
2:03 PM 1.4 °F -23.2 °F -7.6 °F 66% 30.13 in 10.0 mi NNW 27.6 mph 35.7 mph N/A   Overcast
2:16 PM 1.4 °F -22.7 °F -7.6 °F 66% 30.13 in 9.0 mi NNW 26.5 mph 34.5 mph N/A Snow Light Snow
2:25 PM 1.4 °F -22.3 °F -7.6 °F 66% 30.14 in 7.0 mi NNW 25.3 mph 38.0 mph N/A Snow Light Snow
2:55 PM 1.2 °F -21.2 °F -5.6 °F 73% 30.17 in 5.0 mi NNW 21.9 mph 28.8 mph 0.00 in Snow Light Snow
2:58 PM 1.4 °F -21.4 °F -5.8 °F 72% 30.17 in 9.0 mi NNW 23.0 mph 28.8 mph N/A   Overcast
3:05 PM 1.4 °F -21.0 °F -5.8 °F 72% 30.18 in 10.0 mi NNW 21.9 mph 28.8 mph N/A   Overcast
3:30 PM 1.4 °F -19.4 °F -5.8 °F 72% 30.20 in 9.0 mi NNW 18.4 mph 26.5 mph N/A   Overcast
3:31 PM 1.4 °F -19.4 °F -5.8 °F 72% 30.20 in 8.0 mi NNW 18.4 mph 26.5 mph N/A Snow Light Snow
3:41 PM 1.4 °F -21.0 °F -5.8 °F 72% 30.21 in 6.0 mi North 21.9 mph 29.9 mph N/A   Light Freezing Rain
3:47 PM 1.4 °F -19.9 °F -5.8 °F 72% 30.22 in 8.0 mi NNW 19.6 mph 26.5 mph N/A Snow Light Snow
3:55 PM 1.2 °F -21.7 °F -4.9 °F 75% 30.22 in 5.0 mi NNW 23.0 mph 28.8 mph 0.00 in Snow Light Snow
4:03 PM 1.4 °F -20.5 °F -5.8 °F 72% 30.23 in 10.0 mi NNW 20.7 mph 31.1 mph N/A   Overcast
4:06 PM 1.4 °F -19.4 °F -5.8 °F 72% 30.23 in 8.0 mi NNW 18.4 mph 31.1 mph N/A Snow Light Snow
4:26 PM 1.4 °F -22.3 °F -5.8 °F 72% 30.25 in 8.0 mi NNW 25.3 mph 33.4 mph N/A   Overcast
4:55 PM -0.4 °F -25.2 °F -8.1 °F 70% 30.28 in 10.0 mi NNW 26.5 mph 33.4 mph 0.00 in   Overcast
5:16 PM -2.2 °F -25.7 °F -9.4 °F 71% 30.29 in 10.0 mi NNW 21.9 mph 28.8 mph N/A   Overcast
5:49 PM -2.2 °F -22.9 °F -9.4 °F 71% 30.31 in 10.0 mi NNW 16.1 mph 24.2 mph N/A   Overcast
5:55 PM -1.8 °F -23.6 °F -10.3 °F 67% 30.31 in 10.0 mi NNW 18.4 mph 24.2 mph N/A   Overcast
6:12 PM -2.2 °F -25.7 °F -11.2 °F 66% 30.31 in 10.0 mi North 21.9 mph 28.8 mph N/A   Scattered Clouds
6:55 PM -2.9 °F -23.1 °F -11.4 °F 67% 30.32 in 10.0 mi NNW 15.0 mph - N/A   Clear
7:55 PM -3.6 °F -21.7 °F -12.1 °F 67% 30.35 in 10.0 mi North 11.5 mph - N/A   Clear
8:55 PM -4.7 °F -21.1 °F -13.2 °F 67% 30.36 in 10.0 mi NNW 9.2 mph - N/A   Clear
9:55 PM -6.3 °F -21.9 °F -14.3 °F 69% 30.36 in 10.0 mi NNW 8.1 mph - N/A   Clear
10:55 PM -6.7 °F -21.0 °F -14.4 °F 69% 30.37 in 10.0 mi NW 6.9 mph - N/A   Clear
11:55 PM -6.5 °F -20.8 °F -14.4 °F 69% 30.38 in 10.0 mi NW 6.9 mph - N/A   Clear